This is the latest recevied weather packets stored in our database for station/object KI4MRC. If no packets are shown the sender has not sent any weather packets the latest 10 day(s).
| Time | Temp. | Humidity | Pressure | Rain* | Wind** | Luminosity | Snow |
|---|---|---|---|---|---|---|---|
| 1777651705 | 31.11° C | 52% | 1013 hPa | 0 mm | - | 970 W/m² | - |
| 1777651401 | 30.56° C | 51% | 1012.9 hPa | 0 mm | - | 971 W/m² | - |
| 1777651099 | 30.56° C | 52% | 1013.1 hPa | 0 mm | - | 966 W/m² | - |
| 1777650796 | 30.56° C | 56% | 1013 hPa | 0 mm | - | 968 W/m² | - |
| 1777650190 | 30.56° C | 54% | 1013 hPa | 0 mm | - | 922 W/m² | - |
| 1777649887 | 30° C | 57% | 1013.1 hPa | 0 mm | - | 916 W/m² | - |
| 1777649584 | 30.56° C | 56% | 1013 hPa | 0 mm | - | 901 W/m² | - |
| 1777649280 | 30° C | 59% | 1013.1 hPa | 0 mm | - | 842 W/m² | - |
| 1777648977 | 30° C | 58% | 1012.9 hPa | 0 mm | - | 876 W/m² | - |
| 1777648675 | 30° C | 61% | 1012.9 hPa | 0 mm | - | 863 W/m² | - |
| 1777648371 | 29.44° C | 62% | 1013.1 hPa | 0 mm | - | 855 W/m² | - |
| 1777648067 | 29.44° C | 59% | 1013.2 hPa | 0 mm | - | 842 W/m² | - |
| 1777647763 | 29.44° C | 63% | 1013.3 hPa | 0 mm | - | 828 W/m² | - |
| 1777647460 | 30° C | 64% | 1013.4 hPa | 0 mm | - | 810 W/m² | - |
| 1777647158 | 30° C | 64% | 1013.4 hPa | 0 mm | - | 821 W/m² | - |
| 1777646854 | 29.44° C | 67% | 1013.5 hPa | 0 mm | - | 789 W/m² | - |
| 1777646550 | 28.89° C | 66% | 1013.4 hPa | 0 mm | - | 774 W/m² | - |
| 1777646246 | 28.89° C | 68% | 1013.2 hPa | 0 mm | - | 764 W/m² | - |
| 1777645944 | 28.33° C | 70% | 1013.2 hPa | 0 mm | - | 743 W/m² | - |
| 1777645640 | 28.89° C | 69% | 1013.1 hPa | 0 mm | - | 736 W/m² | - |
| 1777645336 | 28.89° C | 69% | 1013.2 hPa | 0 mm | - | 747 W/m² | - |
| 1777645032 | 28.89° C | 69% | 1013.3 hPa | 0 mm | - | 709 W/m² | - |
| 1777644729 | 28.33° C | 71% | 1013.2 hPa | 0 mm | - | 653 W/m² | - |
| 1777644426 | 28.89° C | 71% | 1013.2 hPa | 0 mm | - | 649 W/m² | - |
| 1777644123 | 28.33° C | 75% | 1013.1 hPa | 0 mm | - | 619 W/m² | - |
* Rain latest hour (hover to see other rain measurements)
** Current wind speed in m/s (hover to see current wind gust speed)